Terminal Aerodrome Forecast
Issued by NWS Rapid City, SD

Home | Current Version | Previous Version | Text Only | Print | Product List | Glossary Off
Versions: 1 2 3 4 5 6 7 8 9 10 11 12 13 14 15 16 17 18 19

000
FTUS43 KUNR 210030 AAA
TAFRAP
TAF AMD
KRAP 210030Z 2101/2124 15015G25KT 6SM -SHRA BR BKN008 OVC015
     FM210500 17011KT P6SM OVC008
     FM211800 15013KT P6SM BKN020=

USA.gov is the U.S. government's official web portal to all federal, state and local government web resources and services.